Regional Weather Roundup
Issued by NWS

Home | Current Version | Previous Version | Graphics & Text | Print | Product List | Glossary On
Versions: 1 2 3 4 5 6 7 8 9 10 11 12 13 14 15 16 17 18 19 20 21 22 23 24 25 26 27 28 29 30 31 32 33 34 35 36 37 38 39 40 41 42 43 44 45 46 47 48 49 50
000
ASUS43 KMKX 300111
RWRWI

WISCONSIN REGIONAL WEATHER ROUNDUP
NATIONAL WEATHER SERVICE MILWAUKEE/SULLIVAN WI
800 PM CDT SAT APR 29 2017

NOTE: "FAIR" INDICATES FEW OR NO CLOUDS BELOW 12,000 FEET WITH NO
SIGNIFICANT WEATHER AND/OR OBSTRUCTIONS TO VISIBILITY.

WIZ001-002-006>008-014>016-023>028-300200-
NORTHWEST WISCONSIN

CITY           SKY/WX    TMP DP  RH WIND       PRES   REMARKS
SUPERIOR ARPT  PTCLDY    38  26  62 NE7       30.28R WCI  32
ASHLAND        PTCLDY    39  20  46 NE8       30.30S WCI  33
HAYWARD        PTCLDY    43  19  38 NE17G26   30.23R
SIREN          PTCLDY    47  19  32 NE3G18    30.19R
CUMBERLAND     MOCLDY    45  23  42 NE20      30.17R
RICE LAKE      MOCLDY    48  25  41 NE16G23   30.19R
CHETEK         MOCLDY    49  28  44 NE9G21    30.17S
LADYSMITH      CLOUDY    48  28  46 NE10      30.21R
EAU CLAIRE     CLOUDY    51  24  34 NE16      30.15R
MENOMONIE      CLOUDY    52  24  33 NE14G22   30.16R
NEW RICHMOND   CLOUDY    50  22  33 NE13      30.18R
OSCEOLA        CLOUDY    50  21  32 NE10      30.21R
$$

WIZ003>005-009-010-017-018-300200-
NORTH CENTRAL WISCONSIN

CITY           SKY/WX    TMP DP  RH WIND       PRES   REMARKS
MANITOWISH WTR MOCLDY    40  23  50 NE7       30.24R WCI  35
ARBOR VITAE    MOCLDY    43  25  49 NE9G16    30.21R
WOODRUFF       MOCLDY    43  25  49 NE9G16    30.21R
RHINELANDER    CLOUDY    47  23  38 E8        30.21F
EAGLE RIVER    CLOUDY    41  23  47 NE12      30.21S
LAND O LAKES   CLOUDY    41  23  48 NE7       30.24F
PHILLIPS       PTCLDY    46  23  40 NE10G20   30.21R
TOMAHAWK       CLOUDY    46  22  39 NE6       30.21R
MEDFORD        CLOUDY    46  28  49 NE10      30.20R
MERRILL        CLOUDY    47  26  42 E10       30.19R
$$

WIZ029-030-035-036-043>047-300200-
CENTRAL WISCONSIN

CITY           SKY/WX    TMP DP  RH WIND       PRES   REMARKS
WAUSAU         MOCLDY    47  26  44 E13G21    30.17S
MOSINEE        CLOUDY    45  30  57 E15       30.19S
MARSHFIELD     CLOUDY    47  31  53 SE9       30.19R
STEVENS POINT  CLOUDY    42  29  60 E13G18    30.19F
WAUPACA        CLOUDY    47  28  48 E12G17    30.21F
WAUTOMA        CLOUDY    45  30  55 E16G26    30.17F
WISC RAPIDS    CLOUDY    45  32  60 E12G17    30.20R
CAMP DOUGLAS   CLOUDY    45  30  55 E13       30.18R
$$

WIZ011>013-019>022-031-037>040-048>050-300200-
NORTHEAST WISCONSIN

CITY           SKY/WX    TMP DP  RH WIND       PRES   REMARKS
ANTIGO         CLOUDY    45  22  41 E17G23    30.21S
SHAWANO        CLOUDY    47  29  51 E10       30.25S
OCONTO         CLOUDY    45  29  55 E9        30.27R
STURGEON BAY   CLOUDY    44  28  53 NE7       30.28R
GREEN BAY      CLOUDY    46  30  53 E12G23    30.24F
MANITOWOC      CLOUDY    43  27  53 NE9       30.23F
APPLETON       MOCLDY    45  27  49 E13G23    30.21F
CLINTONVILLE   CLOUDY    45  27  49 E14G20    30.23F
OSHKOSH        CLOUDY    44  27  51 E16G25    30.20F
$$

WIZ032>034-041-042-053>061-300200-
SOUTHWEST WISCONSIN

CITY           SKY/WX    TMP DP  RH WIND       PRES   REMARKS
LA CROSSE      CLOUDY    49  30  48 NE12G20   30.13S
SPARTA         CLOUDY    47  31  54 E16       30.17R
VIROQUA        CLOUDY    44  29  54 E25G32    30.12S
BOSCOBEL       CLOUDY    44  34  67 NE13G25   30.12R
PRAIRIE DU CHI CLOUDY    43  31  63 NE13G25   30.09F
PLATTEVILLE    MOCLDY    40  35  81 NE22G36   30.05R WCI  30
$$

WIZ056-057-062-063-064-067-068-300200-
SOUTH CENTRAL WISCONSIN

CITY           SKY/WX    TMP DP  RH WIND       PRES   REMARKS
REEDSBURG      CLOUDY    42  32  69 E9G25     30.14R
BARABOO/DELLS  CLOUDY    41  32  70 E17G23    30.13F
LONE ROCK      CLOUDY    41  33  73 NE17G28   30.13R
MINERAL POINT  CLOUDY    41  36  81 NE20G28   30.07R
MADISON        LGT RAIN  38  33  82 NE22G31   30.11F WCI  27
MIDDLETON      CLOUDY    40  35  83 E18G24    30.09F WCI  30
WATERTOWN      LGT RAIN  37  37 100 NE16      30.15F WCI  27
MONROE         DRIZZLE   36  34  93 NE24G35   30.01F WCI  24
JANESVILLE     LGT RAIN  39  39 100 NE18      30.10F FOG     WCI  30
$$

WIZ051-052-058>065-066-070>072-300200-
SOUTHEAST WISCONSIN

CITY           SKY/WX    TMP DP  RH WIND       PRES   REMARKS
MILWAUKEE      LGT RAIN  39  37  92 NE22G31   30.16F WCI  29
WAUKESHA       LGT RAIN  36  34  93 NE18G25   30.17F WCI  25
MILWAUKEE/TIMM LGT RAIN  37  34  87 NE15G26   30.18F WCI  28
RACINE         LGT RAIN  39  36  89 NE20G28   30.18F WCI  29
KENOSHA        LGT RAIN  39  36  89 NE18      30.15F WCI  30
FOND DU LAC    CLOUDY    43  25  49 E14       30.21F
SHEBOYGAN      LGT RAIN  40  34  79 NE15      30.22F WCI  32
WEST BEND      LGT RAIN  36  34  93 NE14G22   30.19F WCI  27
JUNEAU         LGT RAIN  37  33  85 NE14G21   30.19F WCI  28
$$

LSZ147-162-300200-
LAKE SUPERIOR

STATION/POSITION TIME  TEMP    WIND        PRES    WAVE
                       AIR SEA DIR/SP/G            HT/PER
                 (UTC) (F)     (DEG/KT/KT) (MB)    (FT/S)
DEVILS ISLAND    0000   38      60/ 10/ 11 1027.1F
PORT WING        2320   40      30/ 14/ 18 1026.8
SAXON HARBOR     0040   39      50/ 11/ 14 1025.4F
$$

LMZ867-665-643>646-300200-
LAKE MICHIGAN

STATION/POSITION TIME  TEMP    WIND        PRES    WAVE
                       AIR SEA DIR/SP/G            HT/PER
                 (UTC) (F)     (DEG/KT/KT) (MB)    (FT/S)
CHAMBERS ISLAND  0040   43      20/ 15/ 17 1024.7R
N MID LAKE BUOY  0050   40 37   30/ 12/ 14 1026.7R   1/ 3
NORTHPORT PIER   0040   45      30/ 10/ 15 1025.4R
SISTER BAY       2251   45      20/ 10/ 12   N/A
KEWAUNEE LAKESHO 0042   41      40/  9/ 12 1024.3F
SHEBOYGAN LAKESH 0000   40      30/ 15/ 17 1025.2R
PORT WASHINGTON  0040   39      30/ 14/ 24 1024.0F
MILWAUKEE LAKESH 0050   39      30/ 25/ 29   N/A
S MID LAKE BUOY  2350   40 41   20/ 17/ 21 1021.8F   6/ 7
KENOSHA   LAKESH 0000   40      20/ 28/ 33 1021.3
$$

TC  - TEMPERATURE IN CELSIUS
VSB - VISIBILITY IN STATUTE MILES
WCI - WIND CHILL INDEX
HX  - HEAT INDEX




USA.gov is the U.S. government's official web portal to all federal, state and local government web resources and services.